[[{"header":{"parameterUnit":"m.s-1","parameterCategory":1,"la1":30.2992,"la2":30.254,"lo1":-89.0895,"lo2":-89.0443,"dy":0.0025,"dx":0.0025,"nx":19,"ny":19,"refTime":"2026-03-08T03:00:00:Z","depth":0,"parameterNumber":2,"parameterNumberName":"U-component_of_WINDS"},"data":[0,0,0,0.6786,0.6788,0.69,0.6901,0.7035,0.7037,0,0,0,0,0,0,0,0,0,0,0,0.6745,0.6745,0.6785,0.6788,0.69,0.6901,0.7035,0.7037,0,0,0,0,0,0,0,0,0,0,0,0.6744,0.6745,0.6746,0.6788,0.69,0.6901,0.7035,0.6954,0,0,0,0,0,0,0,0,0,0,0.6846,0.6801,0.6745,0.6746,0.6789,0.69,0.6901,0.695,0.6959,0.698,0,0.6994,0,0.7017,0.7045,0.7045,0,0,0,0.6794,0.6793,0.683,0.6746,0.679,0.69,0.6851,0.6955,0.6965,0.6991,0.6996,0.7002,0.702,0.7045,0.7046,0.7139,0.7139,0,0,0.6788,0.6761,0.6823,0.6836,0.6816,0.6848,0.6855,0.6961,0.6966,0.6997,0.7005,0.7022,0.7046,0.7047,0.7139,0.7139,0,0,0,0.6766,0.6757,0.6791,0.683,0.6851,0.6851,0.6859,0.6961,0.6975,0.7007,0.7023,0.7047,0.7049,0.7139,0.7139,0.7119,0,0,0,0.6763,0.6744,0.6788,0.6773,0.6849,0.6907,0.6856,0.6967,0.698,0.7023,0.7047,0.705,0.7139,0.7139,0.7119,0.7114,0,0,0,0.674,0.6741,0.6755,0.6771,0.6818,0.6906,0.6926,0.6971,0.699,0.7045,0.705,0.7139,0.7139,0.7119,0.7114,0.713,0,0,0,0.6709,0.6736,0.6754,0.6792,0.6817,0.6892,0.6926,0.6983,0.7028,0.7048,0.7139,0.7139,0.7119,0.7115,0.713,0.7137,0.7138,0,0,0.6729,0.6738,0.6762,0.6781,0.6845,0.6877,0.6939,0.7007,0.7038,0.7104,0.7107,0.7119,0.7114,0.713,0.7151,0.7151,0,0,0,0.676,0.6776,0.6799,0.6839,0.689,0.6934,0.6994,0.7019,0.7076,0.7066,0.713,0.7128,0.7138,0.7143,0.7143,0.7154,0.714,0.714,0.714,0.675,0.6786,0.6829,0.6878,0.6917,0.6978,0.7013,0.7057,0.7085,0.7099,0.7119,0.7127,0.7132,0.7132,0.7142,0.7126,0.7126,0.7126,0.7126,0.6783,0.6812,0.6845,0.6898,0.6936,0.6982,0.7042,0.706,0.7109,0.7115,0.7126,0.713,0.7131,0.7142,0.7125,0.7125,0.7125,0.7125,0.7125,0.678,0.6801,0.6829,0.689,0.6933,0.6983,0.7027,0.7062,0.7095,0.7105,0.713,0.713,0.7135,0.7115,0.7115,0.7115,0.7115,0.7115,0.7115,0.6766,0.6799,0.6831,0.6886,0.6916,0.6959,0.7021,0.7052,0.7095,0.7117,0.7117,0.7142,0.7124,0.7119,0.7115,0.7115,0.7115,0.7115,0.7115,0.6786,0.6786,0.6836,0.6865,0.6932,0.6973,0.7015,0.7075,0.7106,0.7127,0.715,0.7131,0.7143,0.7143,0.7139,0.7141,0.7141,0.7141,0.7141,0.6783,0.6792,0.685,0.6894,0.6943,0.6985,0.7042,0.7089,0.714,0.7161,0.7166,0.7163,0.7162,0.7175,0.7175,0.7171,0.7182,0.7182,0.7182,0.6797,0.6812,0.6852,0.6898,0.6953,0.7,0.7054,0.7105,0.7163,0.7184,0.7179,0.7177,0.7173,0.717,0.7191,0.719,0.7184,0,0]},{"header":{"parameterUnit":"m.s-1","parameterCategory":1,"la1":30.2992,"la2":30.254,"lo1":-89.0895,"lo2":-89.0443,"dy":0.0025,"dx":0.0025,"nx":19,"ny":19,"refTime":"2026-03-08T03:00:00:Z","depth":0,"parameterNumber":3,"parameterNumberName":"V-component_of_WINDS"},"data":[0,0,0,1.8715,1.8716,1.8763,1.8763,1.8822,1.8823,0,0,0,0,0,0,0,0,0,0,0,1.8702,1.8703,1.8715,1.8716,1.8763,1.8763,1.8822,1.8823,0,0,0,0,0,0,0,0,0,0,0,1.8702,1.8702,1.8703,1.8717,1.8763,1.8763,1.8822,1.8787,0,0,0,0,0,0,0,0,0,0,1.8741,1.873,1.8702,1.8703,1.8717,1.8763,1.8763,1.8785,1.8789,1.8801,0,1.8813,0,1.8819,1.8827,1.8827,0,0,0,1.8715,1.8727,1.8739,1.8703,1.8717,1.8763,1.8742,1.8787,1.8792,1.8806,1.8814,1.8816,1.882,1.8827,1.8827,1.8905,1.8905,0,0,1.8713,1.871,1.8736,1.8742,1.8736,1.874,1.8743,1.879,1.8797,1.8814,1.8818,1.8821,1.8827,1.8828,1.8905,1.8905,0,0,0,1.8706,1.8709,1.872,1.874,1.8748,1.8742,1.8745,1.8795,1.8799,1.8818,1.8822,1.8828,1.8829,1.8904,1.8905,1.8924,0,0,0,1.8705,1.8705,1.8719,1.8718,1.8747,1.8773,1.8749,1.8796,1.8801,1.8821,1.8828,1.8829,1.8904,1.8905,1.8923,1.8934,0,0,0,1.8699,1.8704,1.8711,1.8717,1.8738,1.8772,1.8778,1.8797,1.8804,1.8827,1.8829,1.8904,1.8904,1.8921,1.8932,1.8955,0,0,0,1.8691,1.8726,1.8711,1.8751,1.8737,1.8784,1.8778,1.8812,1.8835,1.8828,1.8904,1.8905,1.8921,1.893,1.8954,1.8975,1.8984,0,0,1.8733,1.8731,1.8754,1.8743,1.8792,1.8777,1.8828,1.885,1.8853,1.8887,1.8889,1.8923,1.8931,1.8955,1.903,1.9037,0,0,0,1.8767,1.8784,1.8797,1.882,1.8838,1.8855,1.887,1.8878,1.8908,1.887,1.8937,1.8942,1.8956,1.8967,1.8972,1.8985,1.8909,1.8909,1.8909,1.8822,1.8827,1.8867,1.8877,1.8899,1.8914,1.8932,1.8946,1.8942,1.8958,1.8968,1.9014,1.9026,1.903,1.9044,1.8979,1.8979,1.8979,1.8979,1.8885,1.8911,1.8908,1.8945,1.895,1.8981,1.8997,1.8994,1.9024,1.9006,1.9018,1.9,1.9038,1.905,1.8981,1.898,1.898,1.898,1.898,1.8923,1.8936,1.8947,1.8981,1.9007,1.9015,1.9045,1.9047,1.9048,1.9061,1.9073,1.9073,1.9074,1.9066,1.9066,1.9067,1.9067,1.9067,1.9067,1.8959,1.897,1.8996,1.902,1.9036,1.9056,1.9073,1.9088,1.9105,1.9104,1.9104,1.91,1.9041,1.9027,1.9069,1.9069,1.9069,1.9068,1.9068,1.9023,1.9009,1.9048,1.9064,1.9094,1.912,1.9122,1.9153,1.9165,1.918,1.9174,1.9129,1.9126,1.9121,1.911,1.9172,1.9172,1.9172,1.9172,1.9055,1.9055,1.9097,1.9122,1.9147,1.9154,1.9199,1.9213,1.9224,1.9232,1.9223,1.9208,1.9203,1.9203,1.9196,1.9186,1.9266,1.9266,1.9266,1.9096,1.9098,1.9136,1.9149,1.9173,1.9193,1.9235,1.9264,1.9274,1.927,1.9239,1.9235,1.921,1.9201,1.9196,1.9187,1.9167,0,0]}]]